Flag for Germany Weather past 2 weeks in Weinheim, Baden-Württemberg, Germany

Now
55 °F

Passing clouds.


Feels Like: 53 °F
Forecast: 38 / 64 °F
Wind: 8 mph from Southeast

Location: Baden Wurttemberg - Neuostheim

Current Time: Apr 19, 2015 at 12:31:39 PM

Latest Report: Apr 19, 2015 at 11:50 AM


Visibility: N/A

Pressure: 30.15 "Hg

Humidity: 33%

Dew point: 27 °F

Location of WeinheimLocation

Historic Weather in Weinheim — Graph

°F

Weinheim temperature yesterday

Maximum temperature yesterday: 57 °F (at 3:50 PM)
Minimum temperature yesterday: 41 °F (at 7:50 AM)
Average temperature yesterday: 53 °F

Past Weeks' High & Low Weather Summary

 TemperatureHumidityPressure
High79 °F (Apr 15, 4:20 PM)93% (Apr 4, 11:20 AM)30.63 "Hg (Apr 4, 11:20 AM)
Low30 °F (Apr 7, 6:50 AM)19% (Apr 15, 8:20 PM)29.86 "Hg (Apr 16, 5:20 PM)
Average56 °F51%30.25 "Hg
* Reported Apr 4 11:20 AM — Apr 19 11:20 AM, Weinheim, Weather by CustomWeather, © 2015

Note: Actual official high and low records may vary slightly from our data, if they occured in-between our weather recording intervals... More about our weather records

Advertising

Weinheim weather history for previous 24 hours

 ConditionsComfort  
Time TempWeatherWind HumidityBarometerVisibility
11:20 AM
Sun, Apr 19
55 °FSunny.6 mph31%30.15 "Hg10 mi
10:50 AM55 °FPassing clouds.8 mph33%30.15 "HgN/A
10:20 AM54 °FPassing clouds.9 mph33%30.15 "HgN/A
9:50 AM52 °FPassing clouds.6 mph38%30.15 "HgN/A
9:20 AM50 °FSunny.3 mph40%30.15 "Hg10 mi
8:50 AM46 °FSunny.2 mph53%30.15 "Hg10 mi
8:20 AM45 °FSunny.3 mph57%30.15 "Hg10 mi
7:50 AM43 °FSunny.3 mph57%30.15 "Hg10 mi
7:20 AM41 °FClear.5 mph61%30.15 "Hg10 mi
7:50 PM
Sat, Apr 18
55 °FSunny.6 mph33%30.21 "Hg10 mi
7:20 PM57 °FPassing clouds.7 mph31%30.21 "HgN/A
6:50 PM57 °FPassing clouds.7 mph31%30.21 "HgN/A
6:20 PM57 °FPassing clouds.8 mph31%30.21 "HgN/A
5:50 PM57 °FSunny.6 mph31%30.21 "Hg10 mi
5:20 PM57 °FPassing clouds.10 mph29%30.21 "HgN/A
4:50 PM57 °FPassing clouds.8 mph29%30.21 "HgN/A
4:20 PM57 °FPassing clouds.8 mph29%30.24 "HgN/A
3:50 PM57 °FPassing clouds.9 mph31%30.24 "HgN/A
3:20 PM55 °FPassing clouds.7 mph33%30.24 "HgN/A
2:50 PM55 °FPassing clouds.9 mph33%30.24 "HgN/A
2:20 PM55 °FPassing clouds.8 mph36%30.27 "HgN/A
1:50 PM55 °FPassing clouds.10 mph36%30.27 "HgN/A
1:20 PM55 °FPassing clouds.8 mph36%30.27 "HgN/A
12:50 PM54 °FPassing clouds.8 mph35%30.27 "HgN/A
12:20 PM54 °FPassing clouds.8 mph33%30.27 "HgN/A
Weather by CustomWeather, © 2015

See weather overviewHow to use our weather pages